Location: Asheville, NC
(35.6000°N, 82.5500°W)
Time: 01:51:14
(UTC-05:00)

M-CUBED/EXP-1 PRIME - Pass Details

Date: 17 February 2018
Orbit: 431 x 677 km, 101.7° (Epoch: 20 February)

Event Time Altitude Azimuth Distance (km) Brightness Sun altitude
Rises 05:31:54 0° 39° (NE) 2,528 ? -21.5°
Reaches altitude 10° 05:34:35 10° 63° (ENE) 1,689 ? -21.0°
Maximum altitude 05:36:48 16° 101° (E) 1,412 ? -20.5°
Drops below altitude 10° 05:39:06 10° 139° (SE) 1,764 ? -20.1°
Sets 05:41:59 0° 162° (SSE) 2,707 ? -19.5°
